Stations météo

réclame
Mon MeteoGroup
Cap Bear, France (7749): Température de l'air & dewpoint: 17.11.2017 12:00:00 - 23.11.2017 12:00:00 (CET)Cap Bear, France (7749): Vitesse du vent & gusts: 17.11.2017 12:00:00 - 23.11.2017 12:00:00 (CET)Cap Bear, France (7749): Direction du vent: 17.11.2017 12:00:00 - 23.11.2017 12:00:00 (CET)Cap Bear, France (7749): reduced air pressure: 17.11.2017 12:00:00 - 23.11.2017 12:00:00 (CET)Cap Bear, France (7749): visibility: 17.11.2017 12:00:00 - 23.11.2017 12:00:00 (CET)Cap Bear, France (7749): Quantités de précipitations: 17.11.2017 12:00:00 - 23.11.2017 12:00:00 (CET)
Date & Time tt [°C] td [°C] ff [km/h] ff [knt] fx [km/h] fx [knt] dd ppp [hPa] vv [km] rr [mm]
23.11.2017 12:00:00 11,6 8,6 13 7 18 10 NW 1017,4 - 0,0
23.11.2017 11:00:00 11,5 9,6 6 3 17 9 NNW 1017,5 - 0,0
23.11.2017 10:00:00 10,9 9,5 8 5 12 6 NNW 1017,4 10 0,0
23.11.2017 09:00:00 11,0 9,6 5 3 23 13 N 1017,0 - 0,0
23.11.2017 08:00:00 10,7 9,3 8 4 24 13 NNW 1016,4 - 0,0
23.11.2017 07:00:00 11,0 9,6 13 7 18 10 NW 1015,8 15 0,0
23.11.2017 06:00:00 11,1 9,7 16 9 25 13 NW 1015,4 - 0,0
23.11.2017 05:00:00 11,0 9,6 10 6 23 12 W 1015,0 - 0,0
23.11.2017 04:00:00 11,5 9,4 17 9 33 18 WSW 1014,8 15 0,0
23.11.2017 03:00:00 13,3 8,8 14 8 50 27 SSW 1014,5 - 0,0
23.11.2017 02:00:00 13,5 9,3 26 14 55 30 S 1013,8 - 0,0
23.11.2017 01:00:00 13,8 9,8 33 18 61 33 SW 1013,9 - 0,0
23.11.2017 00:00:00 13,9 10,9 10 5 42 23 S 1014,0 - 0,0
22.11.2017 23:00:00 14,4 11,2 24 13 39 21 S 1013,8 - 0,0
22.11.2017 22:00:00 14,6 11,2 20 11 36 19 S 1013,8 - 0,0
22.11.2017 21:00:00 14,9 11,3 26 14 37 20 S 1013,7 - 0,0
22.11.2017 20:00:00 13,9 11,2 9 5 21 11 SSE 1014,1 - 0,0
22.11.2017 19:00:00 14,2 11,0 13 7 22 12 S 1013,9 15 0,0
22.11.2017 18:00:00 13,2 10,4 8 4 18 10 NNW 1013,6 - 0,0
22.11.2017 17:00:00 13,2 10,7 10 5 19 10 NW 1013,2 - 0,0
22.11.2017 16:00:00 13,6 11,5 14 8 29 16 NW 1013,6 15 0,0
22.11.2017 15:00:00 15,4 11,0 12 7 42 23 W 1013,6 - 0,0
22.11.2017 14:00:00 15,6 12,2 32 17 37 20 SSE 1013,7 - 0,0
22.11.2017 13:00:00 15,5 11,5 9 5 26 14 SE 1014,8 15 0,0
22.11.2017 12:00:00 13,8 10,4 12 6 16 9 E 1016,1 - 0,0
22.11.2017 11:00:00 13,3 9,5 4 2 8 4 ESE 1016,8 - 0,0
22.11.2017 10:00:00 13,3 9,7 3 1 24 13 ESE 1017,0 15 0,0
22.11.2017 09:00:00 11,1 9,4 22 12 29 16 WNW 1016,8 - 0,0
22.11.2017 08:00:00 10,3 8,7 23 12 32 17 NW 1016,4 - 0,0
22.11.2017 07:00:00 10,0 8,9 29 16 35 19 WNW 1016,1 - 0,0
22.11.2017 06:00:00 10,4 9,6 27 14 35 19 WNW 1016,2 - 0,0
22.11.2017 05:00:00 9,3 8,2 27 15 32 17 WNW 1016,5 - 0,0
22.11.2017 04:00:00 10,7 6,6 16 9 32 17 WNW 1016,5 15 0,0
22.11.2017 03:00:00 11,4 4,8 6 4 14 8 NW 1016,9 - 0,0
22.11.2017 02:00:00 11,6 6,7 8 5 22 12 S 1017,2 - 0,0
22.11.2017 01:00:00 13,6 8,6 13 7 24 13 S 1017,4 - 0,0
22.11.2017 00:00:00 13,5 7,0 11 6 16 8 S 1018,0 - 0,0
21.11.2017 23:00:00 13,9 6,5 4 2 10 5 SE 1018,3 - 0,0
21.11.2017 22:00:00 14,6 5,7 5 3 13 7 NNE 1018,7 20 0,0
21.11.2017 21:00:00 15,1 4,7 11 6 16 9 NW 1018,8 - 0,0
21.11.2017 20:00:00 15,4 5,0 3 2 9 5 NE 1019,1 - 0,0
21.11.2017 19:00:00 14,9 7,4 6 4 9 5 ENE 1019,1 - 0,0
21.11.2017 18:00:00 14,9 7,2 6 4 29 15 S 1018,9 - 0,0
21.11.2017 17:00:00 14,2 11,7 19 10 24 13 S 1018,7 - 0,0
21.11.2017 16:00:00 14,5 11,3 11 6 20 11 S 1019,1 20 0,0
21.11.2017 15:00:00 15,1 11,3 16 9 19 11 S 1019,3 - 0,0
21.11.2017 14:00:00 15,3 10,1 15 8 18 10 S 1020,0 - 0,0
21.11.2017 13:00:00 14,7 6,8 4 2 9 5 SSE 1020,7 20 0,0
21.11.2017 12:00:00 13,3 8,4 8 4 10 5 NNW 1021,3 - 0,0
21.11.2017 11:00:00 13,7 7,7 7 4 9 5 NNW 1021,6 - 0,0
21.11.2017 10:00:00 12,5 7,4 3 2 10 5 NNW 1021,5 25 0,0
21.11.2017 09:00:00 13,3 7,9 6 3 10 5 S 1021,3 - 0,0
21.11.2017 08:00:00 11,8 7,1 5 3 11 6 SE 1021,1 - 0,0
21.11.2017 07:00:00 11,4 5,7 4 2 6 3 SE 1020,5 25 0,0
21.11.2017 06:00:00 12,1 4,3 5 3 8 5 SSW 1020,3 - 0,0
21.11.2017 05:00:00 11,0 5,3 4 2 6 3 SSW 1020,5 - 0,0
21.11.2017 04:00:00 12,1 4,1 6 3 16 9 N 1020,6 - 0,0
21.11.2017 03:00:00 12,4 2,5 12 7 21 11 NW 1021,0 - 0,0
21.11.2017 02:00:00 13,1 4,0 6 3 17 9 WNW 1021,1 - 0,0
21.11.2017 01:00:00 11,1 4,8 7 4 15 8 NW 1021,5 - 0,0
21.11.2017 00:00:00 14,6 4,3 5 3 7 4 NW 1021,3 - 0,0
20.11.2017 23:00:00 13,9 5,3 5 3 6 3 N 1021,3 - 0,0
20.11.2017 22:00:00 14,5 5,0 3 2 10 5 N 1021,6 - 0,0
20.11.2017 21:00:00 14,3 5,9 4 2 23 12 W 1021,4 - 0,0
20.11.2017 20:00:00 13,5 6,4 14 8 21 11 NW 1021,4 - 0,0
20.11.2017 19:00:00 15,5 6,2 8 4 13 7 SW 1021,1 - 0,0
20.11.2017 18:00:00 14,0 8,2 10 5 16 9 SSW 1020,9 - 0,0
20.11.2017 17:00:00 14,1 10,9 13 7 22 12 S 1021,0 - 0,0
20.11.2017 16:00:00 14,4 9,8 16 9 23 12 SSE 1021,4 - 0,0
20.11.2017 15:00:00 15,1 10,1 15 8 18 10 SSE 1021,5 - 0,0
20.11.2017 14:00:00 15,3 9,4 9 5 20 11 ENE 1022,1 - 0,0
20.11.2017 13:00:00 16,7 9,1 19 10 34 18 N 1022,3 30 0,0
20.11.2017 12:00:00 16,7 5,0 29 16 48 26 NW 1022,7 - 0,0
20.11.2017 11:00:00 16,4 3,1 27 14 51 27 NW 1022,9 - 0,0
20.11.2017 10:00:00 15,2 2,4 30 16 51 28 WNW 1022,6 30 0,0
20.11.2017 09:00:00 14,0 3,2 35 19 55 30 WNW 1022,6 - 0,0
20.11.2017 08:00:00 13,2 3,3 31 17 53 29 WNW 1022,4 - 0,0
20.11.2017 07:00:00 13,2 3,0 28 15 51 28 NW 1021,9 20 0,0
20.11.2017 06:00:00 13,0 2,8 35 19 63 34 NW 1021,8 - 0,0
20.11.2017 05:00:00 12,9 3,0 34 19 62 34 WNW 1021,8 - 0,0
20.11.2017 04:00:00 12,4 1,4 39 21 61 33 WNW 1022,1 20 0,0
20.11.2017 03:00:00 12,0 0,7 36 19 69 37 NW 1022,5 - 0,0
20.11.2017 02:00:00 12,1 0,8 44 24 66 35 NW 1021,8 - 0,0
20.11.2017 01:00:00 12,1 2,8 39 21 81 44 NW 1022,3 - 0,0
20.11.2017 00:00:00 12,5 2,6 47 26 76 41 NW 1022,1 - 0,0
19.11.2017 23:00:00 12,3 3,2 41 22 63 34 NW 1022,5 - 0,0
19.11.2017 22:00:00 12,4 3,9 41 22 69 37 NW 1022,7 - 0,0
19.11.2017 21:00:00 12,7 3,6 54 29 68 37 NW 1021,7 - 0,0
19.11.2017 20:00:00 13,2 3,8 42 23 55 30 NW 1021,9 - 0,0
19.11.2017 19:00:00 13,7 4,6 31 17 59 32 NW 1021,7 20 0,0
19.11.2017 18:00:00 13,9 6,5 41 22 65 35 NNW 1020,7 - 0,0
19.11.2017 17:00:00 15,9 3,0 44 24 72 39 NW 1019,8 - 0,0
19.11.2017 16:00:00 16,1 3,8 54 29 72 39 NW 1019,4 30 0,0
19.11.2017 15:00:00 16,2 4,9 63 34 77 41 NNW 1019,2 - 0,0
19.11.2017 14:00:00 15,9 3,3 68 37 78 42 NNW 1019,4 - 0,0
19.11.2017 13:00:00 15,1 5,9 50 27 68 37 NNW 1020,7 25 0,0
19.11.2017 12:00:00 15,2 4,0 48 26 56 30 NNW 1021,3 - 0,0
19.11.2017 11:00:00 14,9 -2,1 29 16 59 32 WNW 1021,5 - 0,0
19.11.2017 10:00:00 12,6 -0,3 42 23 58 32 NW 1021,3 20 0,0
19.11.2017 09:00:00 12,0 -0,9 36 19 59 32 NW 1021,2 - 0,0
19.11.2017 08:00:00 11,3 -0,2 31 17 49 26 NW 1020,8 - 0,0
19.11.2017 07:00:00 11,7 2,4 47 26 60 32 NW 1020,0 - 0,0
19.11.2017 06:00:00 11,4 4,1 40 21 55 30 NNW 1020,0 - 0,0
19.11.2017 05:00:00 10,4 4,3 44 24 51 28 NW 1020,1 - 0,0
19.11.2017 04:00:00 10,9 3,7 37 20 60 32 NW 1019,6 - 0,0
19.11.2017 03:00:00 11,0 3,8 31 17 54 29 NW 1019,9 - 0,0
19.11.2017 02:00:00 10,5 4,6 38 20 55 30 NW 1020,4 - 0,0
19.11.2017 01:00:00 11,2 5,5 36 19 60 32 NW 1020,3 - 0,0
19.11.2017 00:00:00 11,3 6,6 37 20 46 25 NNW 1020,9 - 0,0
18.11.2017 23:00:00 11,8 6,7 43 23 58 32 NNW 1020,6 - 0,0
18.11.2017 22:00:00 12,1 7,2 37 20 48 26 NNW 1021,2 - 0,0
18.11.2017 21:00:00 12,4 7,1 37 20 51 27 NNW 1020,8 - 0,0
18.11.2017 20:00:00 13,1 7,1 38 21 50 27 NNW 1020,7 - 0,0
18.11.2017 19:00:00 13,7 6,8 41 22 60 33 NNW 1019,9 25 0,0
18.11.2017 18:00:00 14,4 5,7 36 19 55 30 NW 1019,8 - 0,0
18.11.2017 17:00:00 14,7 7,3 40 22 62 33 NNW 1019,0 - 0,0
18.11.2017 16:00:00 15,0 7,8 54 29 67 36 N 1018,3 25 0,0
18.11.2017 15:00:00 16,3 8,3 48 26 58 31 N 1018,3 - 0,0
18.11.2017 14:00:00 17,4 9,3 40 22 61 33 N 1018,8 - 0,0
18.11.2017 13:00:00 16,8 8,0 49 27 61 33 N 1018,9 25 0,0
18.11.2017 12:00:00 15,4 6,4 55 30 62 33 NNW 1019,5 - 0,0
18.11.2017 11:00:00 14,7 6,3 46 25 60 32 NNW 1020,3 - 0,0
18.11.2017 10:00:00 13,5 6,4 37 20 58 32 NW 1020,8 20 0,0
18.11.2017 09:00:00 13,0 6,1 47 25 61 33 NW 1020,2 - 0,0
18.11.2017 08:00:00 12,2 5,6 39 21 59 32 NW 1019,8 - 0,0
18.11.2017 07:00:00 12,5 7,0 45 25 60 32 NNW 1019,1 20 0,0
18.11.2017 06:00:00 12,5 5,4 42 23 56 30 NW 1019,6 - 0,0
18.11.2017 05:00:00 12,2 4,9 41 22 66 36 NW 1019,3 - 0,0
18.11.2017 04:00:00 12,7 6,5 48 26 63 34 NW 1019,0 - 0,0
18.11.2017 03:00:00 12,6 5,5 28 15 55 30 NW 1019,6 - 0,0
18.11.2017 02:00:00 13,1 5,3 36 19 59 32 WNW 1019,4 - 0,0
18.11.2017 01:00:00 13,8 4,6 39 21 79 43 NW 1019,3 - 0,0
18.11.2017 00:00:00 13,9 4,7 45 24 68 37 NW 1019,0 - 0,0
17.11.2017 23:00:00 14,2 4,2 36 19 61 33 NW 1019,4 - 0,0
17.11.2017 22:00:00 15,2 2,7 30 16 49 26 NW 1019,4 - 0,0
17.11.2017 21:00:00 15,5 1,9 28 15 44 24 NW 1019,2 - 0,0
17.11.2017 20:00:00 15,8 1,1 26 14 53 29 NW 1019,2 - 0,0
17.11.2017 19:00:00 16,8 0,4 28 15 55 30 NW 1018,6 25 0,0
17.11.2017 18:00:00 17,2 0,8 29 16 55 30 NW 1018,1 - 0,0
17.11.2017 17:00:00 18,0 3,5 48 26 61 33 NW 1017,3 - 0,0
17.11.2017 16:00:00 19,2 2,1 39 21 58 31 NW 1017,0 - 0,0
17.11.2017 15:00:00 19,7 2,1 34 18 53 28 NW 1017,5 - 0,0
17.11.2017 14:00:00 19,5 2,4 46 25 55 30 NNW 1017,5 - 0,0
17.11.2017 13:00:00 17,9 6,1 44 24 52 28 NNW 1018,2 20 0,0
17.11.2017 12:00:00 16,2 6,9 30 16 46 25 NNW 1019,0 - 0,0

tt = Température de l'air
td = dewpoint
ff = Vitesse du vent
fx = gusts
dd = Direction du vent
ppp = reduced air pressure
vv = visibility
rr = Quantités de précipitations

stations d'obs. à proximité